This is the latest recevied weather packets stored in our database for station/object IW4DZV-13. If no packets are shown the sender has not sent any weather packets the latest 10 day(s).
| Time | Temp. | Humidity | Pressure | Rain* | Wind** | Luminosity | Snow |
|---|---|---|---|---|---|---|---|
| 1787527814 | 20° C | 88% | 1016.6 hPa | 0 mm | - | 0 W/m² | - |
| 1787526912 | 20.56° C | 87% | 1016.9 hPa | 0 mm | - | 0 W/m² | - |
| 1787526015 | 20.56° C | 87% | 1017.1 hPa | 0 mm | - | 0 W/m² | - |
| 1787525109 | 20.56° C | 86% | 1017.1 hPa | 0 mm | - | 0 W/m² | - |
| 1787524208 | 20.56° C | 85% | 1016.9 hPa | 0 mm | - | 0 W/m² | - |
| 1787523307 | 21.11° C | 85% | 1016.9 hPa | 0 mm | - | 0 W/m² | - |
| 1787522406 | 21.11° C | 85% | 1017 hPa | 0 mm | - | 0 W/m² | - |
| 1787521505 | 21.11° C | 84% | 1017 hPa | 0.76 mm | - | 0 W/m² | - |
| 1787520604 | 21.11° C | 84% | 1017.1 hPa | 0.76 mm | - | 0 W/m² | - |
| 1787519704 | 21.67° C | 83% | 1017.1 hPa | 0.76 mm | - | 0 W/m² | - |
| 1787518803 | 21.67° C | 82% | 1017 hPa | 0.76 mm | - | 0 W/m² | - |
| 1787517901 | 22.22° C | 81% | 1017 hPa | 0.76 mm | - | 0 W/m² | - |
| 1787517002 | 22.78° C | 79% | 1016.9 hPa | 0.76 mm | - | 0 W/m² | - |
| 1787516102 | 22.78° C | 78% | 1016.8 hPa | 0.76 mm | - | 0 W/m² | - |
| 1787515261 | 23.33° C | 76% | 1016.8 hPa | 0.76 mm | - | 0 W/m² | - |
| 1787514361 | 23.89° C | 75% | 1016.8 hPa | 0.76 mm | - | 0 W/m² | - |
| 1787513475 | 24.44° C | 73% | 1016.8 hPa | 0.76 mm | - | 0 W/m² | - |
| 1787512560 | 24.44° C | 73% | 1016.6 hPa | 0.76 mm | - | 0 W/m² | - |
| 1787511665 | 23.89° C | 73% | 1016.5 hPa | 0.76 mm | - | 0 W/m² | - |
| 1787510759 | 24.44° C | 72% | 1016.3 hPa | 0.76 mm | - | 0 W/m² | - |
| 1787509858 | 24.44° C | 71% | 1016.3 hPa | 0.76 mm | - | 0 W/m² | - |
| 1787508958 | 25° C | 69% | 1016.1 hPa | 0.76 mm | - | 0 W/m² | - |
| 1787508063 | 25.56° C | 67% | 1016.1 hPa | 0.76 mm | - | 7 W/m² | - |
| 1787507178 | 26.11° C | 65% | 1016.1 hPa | 0.76 mm | - | 12 W/m² | - |
| 1787506260 | 26.11° C | 63% | 1016 hPa | 0.76 mm | - | 18 W/m² | - |
* Rain since midnight (hover to see other rain measurements)
** Current wind speed in m/s (hover to see current wind gust speed)